Wind_Speed
4 6 7 7 7 7 6 6 5 4 5 6 5 4 4 4 3 1 1 1 1 1 3 4 5 7 7 8 10 8 4 3 1 1 2 4 5 5 6 5 5 7 5 5 6 7 9 10 11 14 14 13 12 11 12 11 9 8 6 6 7 8 12 15 16 16 16 16 15 14 16 18 19 20 19 17 17 17 16 14 15 15 12 11 15 17
4 7 7 6 6 7 6 5 6 5 5 5 5 4 3 3 3 2 1 1 1 1 2 6 9 8 7 8 10 9 7 7 4 1 1 3 6 7 7 7 6 6 2 3 6 5 6 8 8 8 8 7 7 7 7 9 12 11 9 5 1 5 10 13 15 15 13 13 12 10 12 15 16 16 16 17 17 16 15 14 14 12 11 14 17 14
6 7 6 5 5 6 5 4 6 6 4 3 3 3 3 2 1 1 1 2 1 1 2 7 10 7 5 6 9 10 8 7 6 3 2 1 4 6 7 8 7 6 4 6 8 6 4 4 4 3 4 6 11 15 18 21 20 15 11 6 6 9 11 12 13 12 9 11 13 14 14 16 16 15 15 16 16 14 13 14 13 11 12 17 17 12
6 6 6 5 6 7 6 3 6 6 2 2 3 3 3 2 2 3 2 2 2 3 3 9 10 5 4 3 6 9 8 7 7 7 7 5 1 2 3 4 5 7 8 9 10 7 2 3 6 9 15 20 23 21 19 16 12 8 7 8 7 7 10 10 10 10 10 13 15 15 14 13 12 11 11 12 14 13 13 14 12 11 15 19 16 12
6 5 7 7 5 7 6 4 6 5 3 1 3 4 3 3 3 2 2 1 1 3 2 8 7 4 4 3 5 7 7 8 8 8 9 8 6 6 5 4 4 5 7 7 8 6 3 10 16 22 24 23 20 15 10 5 6 8 6 5 4 5 8 9 9 11 12 14 13 12 11 9 7 7 7 9 12 12 13 15 12 12 16 18 15 11
5 5 9 8 4 5 7 5 5 6 5 2 4 6 5 5 4 1 2 1 2 3 2 2 3 3 3 4 6 7 7 9 8 9 10 9 8 8 7 7 7 7 8 7 7 6 9 13 17 21 19 13 12 10 4 3 3 6 6 4 5 6 8 10 10 11 11 11 8 7 8 8 6 5 6 8 11 12 14 16 14 14 16 17 14 12
3 5 7 8 7 6 6 5 4 5 5 3 4 6 5 4 4 4 3 2 1 3 1 1 1 3 1 3 7 6 6 9 8 9 10 9 9 8 8 8 8 9 9 8 8 9 11 12 11 13 12 9 9 9 6 5 5 4 4 3 4 5 7 8 8 7 7 6 5 6 7 7 6 6 6 7 9 12 15 17 16 16 18 16 11 10
5 8 5 7 7 5 5 5 5 6 6 2 3 8 8 6 6 6 4 3 1 1 2 1 1 3 3 2 6 4 5 9 9 9 9 8 9 9 9 10 10 11 11 10 10 11 11 10 10 11 11 10 10 10 6 7 6 6 5 5 4 5 5 4 4 4 4 3 4 7 9 9 9 10 11 11 11 14 16 17 16 16 17 14 10 11
5 9 8 9 7 4 5 4 7 9 6 2 3 7 7 6 5 4 4 3 0 1 3 2 1 2 3 1 4 2 5 9 8 8 9 9 9 9 10 11 11 12 12 12 11 11 10 11 12 12 13 13 14 15 12 9 10 9 8 9 8 5 2 3 3 2 2 3 6 9 11 12 13 14 15 14 14 14 13 13 16 16 15 14 13 14
2 7 9 10 7 5 5 4 9 12 5 2 6 6 4 3 2 1 2 3 2 3 4 3 2 2 3 0 2 3 5 6 6 7 9 9 9 9 10 11 11 11 11 12 12 12 12 12 12 13 14 14 14 16 16 15 15 12 10 9 9 7 5 5 3 2 2 2 6 8 9 10 14 15 13 11 10 9 9 12 15 16 15 14 12 11
1 1 3 5 5 5 5 4 6 9 5 7 9 7 5 3 2 1 1 1 3 4 2 0 3 1 3 1 1 2 3 4 4 5 7 8 10 10 10 10 11 11 10 11 12 13 15 16 14 14 15 15 14 13 13 14 15 12 12 11 10 8 7 6 5 4 5 5 5 7 9 11 16 16 11 9 10 10 10 12 13 14 14 14 12 11
2 4 3 3 2 4 6 5 2 2 5 6 5 5 5 3 1 2 1 1 4 4 1 1 3 1 2 1 1 1 3 4 3 4 6 8 10 10 10 10 10 10 10 11 11 11 13 16 16 17 16 16 15 14 13 13 12 10 10 10 8 7 7 6 5 6 7 9 8 8 9 12 16 17 13 13 14 14 13 13 12 12 13 13 13 12
1 3 1 1 1 4 7 6 3 3 5 4 3 6 7 4 3 4 3 3 4 2 2 1 2 1 2 2 3 4 4 4 3 5 7 9 10 10 10 10 9 10 11 11 11 10 11 13 14 16 18 18 17 17 15 13 12 10 10 10 9 7 7 6 6 6 8 9 9 11 12 14 15 16 17 17 17 15 15 14 13 13 12 13 14 14
4 2 2 2 2 3 8 8 5 5 6 6 6 8 8 5 5 6 3 2 2 2 2 2 2 2 2 1 3 4 4 3 5 7 9 10 10 10 10 9 9 11 11 10 10 9 10 12 14 15 17 19 18 18 17 16 15 13 12 12 12 10 9 8 8 8 9 9 9 10 13 14 14 15 16 16 15 14 16 16 14 14 13 12 13 14
7 3 5 7 3 5 9 7 7 8 7 6 3 4 5 3 4 4 3 3 3 3 3 1 0 3 3 3 3 3 2 4 7 8 9 10 9 9 9 10 10 11 10 9 9 9 10 12 13 13 14 16 16 17 17 17 17 17 16 15 14 14 13 12 11 11 11 11 11 10 11 12 13 13 14 13 12 13 16 16 15 15 14 13 13 13
5 2 4 4 1 7 11 6 6 9 6 4 1 1 3 3 3 3 1 1 2 3 2 2 1 2 2 3 4 3 4 6 8 9 10 10 9 9 9 10 10 10 10 9 9 10 12 13 14 15 15 15 15 16 16 17 17 17 16 16 16 16 15 15 15 14 13 13 13 12 11 11 12 12 13 11 10 11 14 15 15 16 15 14 13 13
3 1 1 2 2 7 9 7 6 5 5 4 3 4 2 1 4 4 2 2 1 3 2 2 2 3 3 4 6 7 7 9 9 8 9 9 9 9 8 8 9 9 9 9 9 9 12 14 16 16 16 17 18 18 18 17 16 17 16 15 15 16 16 16 16 16 15 13 14 15 14 14 14 14 12 11 10 10 10 12 14 16 17 15 14 13
3 2 0 2 6 4 2 7 5 0 3 5 6 6 4 2 2 3 3 2 1 3 2 1 2 4 4 4 7 10 10 10 9 8 9 9 9 9 8 7 8 8 8 9 9 10 12 14 15 15 14 15 16 17 17 16 15 16 16 15 15 15 15 15 16 16 15 13 14 15 15 15 14 13 12 12 12 11 11 12 13 15 16 15 12 10
2 2 1 2 4 3 2 6 5 1 0 2 5 6 3 2 3 2 2 3 3 3 2 1 0 3 5 4 8 12 11 10 10 9 8 8 8 7 7 8 9 9 8 9 9 9 12 14 15 15 15 15 15 16 17 16 15 16 16 16 16 16 15 15 15 15 14 13 13 13 13 13 12 11 12 14 13 13 14 14 13 14 15 13 11 10
0 2 2 1 0 3 3 4 5 5 1 2 4 5 0 1 3 2 1 2 4 4 2 2 1 4 4 4 9 13 11 10 10 9 8 7 7 7 7 8 8 8 8 9 8 8 11 13 15 16 16 16 16 16 16 16 15 16 16 15 16 16 16 16 16 15 14 14 13 13 12 11 12 13 14 15 15 14 14 14 13 15 15 13 11 12
0 1 3 2 0 3 4 3 4 7 6 4 6 6 2 1 1 2 2 2 2 4 4 3 2 4 1 2 8 13 11 10 11 10 8 6 7 7 7 7 7 8 9 9 8 8 11 14 15 16 16 16 15 15 16 15 14 16 16 16 16 16 16 17 16 15 15 15 14 13 12 12 14 16 15 14 13 12 13 14 13 13 13 13 11 12
1 0 2 3 3 3 2 0 2 4 4 6 7 6 4 4 4 5 3 1 2 2 3 4 3 3 1 1 6 10 10 10 11 12 10 7 7 8 8 8 8 8 8 8 8 9 12 14 15 15 15 15 14 15 16 16 15 17 18 17 17 16 16 16 16 14 15 15 15 14 13 13 14 16 16 13 12 11 12 13 12 10 11 12 12 12
1 1 2 3 2 1 1 2 0 1 3 4 3 3 4 4 4 6 5 3 2 2 2 2 1 1 2 1 3 8 11 10 9 11 11 7 7 8 8 8 8 8 8 7 8 9 11 13 13 13 14 15 15 16 17 17 16 16 17 16 16 15 16 17 16 15 15 14 15 15 14 13 12 15 16 15 14 13 13 15 15 14 12 12 13 12
2 1 2 2 2 1 2 2 2 2 3 4 3 2 2 2 2 3 3 4 4 3 3 3 2 1 3 4 6 9 12 10 8 10 11 8 7 8 8 8 7 7 7 7 7 9 11 12 12 12 14 15 16 17 17 16 16 15 15 15 15 15 16 17 16 16 16 15 15 15 14 13 12 13 16 16 15 14 15 18 19 17 13 11 11 13
2 0 2 3 3 3 3 4 3 2 2 2 3 2 1 3 5 4 3 3 3 3 3 4 3 1 4 6 7 10 12 11 10 10 9 8 7 7 7 7 7 7 7 7 7 8 10 11 12 13 14 15 16 16 16 16 15 15 15 15 16 16 16 16 15 16 17 17 17 15 14 14 13 13 14 16 17 16 17 20 21 17 13 11 12 14
2 1 0 3 4 4 3 3 2 2 2 2 2 3 3 3 4 4 4 3 4 3 3 4 3 2 4 7 9 9 11 11 10 9 8 8 8 8 7 7 6 7 8 8 7 7 8 10 12 14 15 15 15 16 16 16 16 16 16 16 17 16 16 15 15 15 16 17 18 17 16 15 14 14 15 15 16 16 17 19 20 19 15 13 15 16
4 3 3 3 3 2 2 1 2 0 3 2 2 3 4 3 2 2 4 3 4 5 3 2 4 7 9 9 10 10 9 10 9 8 8 8 9 8 7 7 7 6 6 6 6 7 8 10 12 14 15 15 15 15 15 15 16 16 17 17 17 17 16 15 15 15 15 16 18 18 17 17 16 16 17 16 16 15 15 16 18 18 17 16 16 16
5 3 4 8 7 4 3 2 2 3 4 4 3 3 3 3 2 2 4 3 5 7 4 3 7 11 12 12 12 11 10 10 9 8 8 8 8 8 7 7 8 7 6 6 6 8 9 9 11 13 15 15 15 16 15 14 14 15 16 16 17 16 15 14 15 16 15 15 17 18 19 19 18 17 17 17 16 15 14 14 16 17 17 18 17 16
5 3 2 6 9 7 5 4 5 8 9 8 7 6 5 4 2 3 3 2 2 2 2 7 12 9 9 12 11 10 10 10 9 8 8 8 9 9 8 7 8 7 7 7 8 9 8 9 10 12 14 15 15 16 15 14 14 14 15 16 16 16 16 15 15 16 16 16 17 18 20 20 20 18 17 16 15 15 14 15 17 17 17 18 18 16
3 4 4 7 10 10 7 5 5 8 10 10 11 9 7 7 7 7 6 5 4 3 2 11 14 7 5 8 9 10 10 10 10 8 7 9 10 8 8 8 7 7 7 8 9 9 8 9 11 12 12 13 14 15 15 14 14 14 15 16 17 17 17 16 16 16 16 17 18 19 19 20 20 20 18 17 16 15 14 15 17 17 17 18 17 15
1 4 4 3 6 7 7 7 7 8 10 11 11 10 8 8 9 8 7 5 6 6 7 14 14 7 4 7 10 10 9 9 9 9 8 8 8 8 8 8 7 7 8 8 8 8 8 10 11 11 11 12 13 14 14 14 14 15 15 17 18 18 17 16 17 18 17 17 21 22 21 20 20 19 17 16 16 15 14 14 15 16 15 15 18 19
2 5 3 1 4 3 3 5 6 7 11 12 11 10 9 6 6 6 6 3 3 9 13 12 9 6 5 8 10 10 9 10 10 9 8 7 7 8 8 7 7 7 8 8 8 8 8 9 10 10 11 11 12 13 14 14 14 15 16 17 18 18 17 16 19 23 21 18 22 25 24 22 20 18 16 15 15 15 14 14 13 13 14 16 19 21
2 6 4 1 4 3 1 1 2 3 6 7 5 5 5 5 6 6 7 7 4 7 9 5 5 8 9 9 10 10 9 9 9 8 6 6 7 7 7 8 7 7 8 7 8 8 8 8 9 10 10 11 12 13 13 13 14 15 16 16 17 19 18 17 20 26 25 21 22 25 25 23 20 18 17 16 16 15 14 13 12 13 16 17 19 19
3 5 3 1 3 5 3 2 0 4 4 2 2 3 3 1 5 7 6 7 7 5 5 5 8 11 10 8 10 10 9 8 8 7 5 5 6 6 7 8 7 7 7 7 7 8 8 8 9 10 10 11 12 13 13 13 13 14 15 16 18 19 19 18 21 24 24 21 21 24 25 23 20 18 18 17 16 13 10 8 9 11 14 16 18 18
4 4 3 2 3 4 2 1 3 4 1 2 2 1 1 4 9 12 10 8 7 8 10 11 11 11 9 8 10 11 11 10 10 8 7 6 6 6 8 8 7 7 6 6 7 8 9 9 10 10 10 11 13 14 14 15 14 14 15 17 19 19 18 19 22 23 22 21 21 24 25 23 20 18 18 17 15 11 6 3 1 6 10 14 18 19
5 4 3 2 2 3 3 2 3 1 2 2 2 3 5 7 8 9 8 7 5 7 11 12 10 10 10 10 10 10 12 12 10 8 7 6 6 7 7 7 7 7 6 6 7 7 8 8 8 9 9 12 16 16 15 16 15 14 16 18 19 19 19 19 22 24 25 22 22 24 25 22 20 19 18 17 16 12 8 7 7 8 10 14 17 17
4 4 4 2 1 1 4 3 2 0 2 2 3 2 2 3 3 2 3 4 3 5 9 11 11 10 10 10 10 11 11 10 8 7 6 7 7 7 8 8 7 7 6 6 6 7 8 8 8 10 12 16 18 18 16 16 16 15 16 19 19 19 20 21 22 25 24 20 20 23 24 22 19 18 17 18 18 15 12 9 10 11 11 14 17 17
4 2 3 3 1 1 4 4 2 2 2 3 5 3 2 3 2 1 2 3 3 6 10 12 12 11 11 11 11 10 8 5 5 5 5 6 7 7 8 8 8 8 7 7 9 10 11 12 12 15 17 19 20 19 17 18 18 16 17 18 19 20 22 22 22 22 22 20 19 20 21 22 20 17 17 17 17 15 13 11 12 12 13 15 19 20
8 4 3 4 3 2 3 3 3 2 1 2 5 4 2 1 1 2 1 2 6 9 11 12 13 12 11 11 10 8 5 4 4 3 4 6 7 7 7 7 8 9 10 10 11 10 11 13 16 20 22 21 19 19 19 21 21 19 18 18 19 21 22 22 20 20 21 22 22 20 19 20 20 18 17 16 15 14 13 14 15 15 16 19 23 23
6 4 2 4 4 3 3 2 1 1 1 2 4 3 1 0 1 3 3 2 7 10 10 11 12 12 11 11 8 3 0 2 5 6 6 7 7 6 7 8 9 10 10 11 12 10 10 13 16 20 22 21 18 18 19 22 22 19 18 18 20 21 21 20 19 19 20 24 25 23 21 21 18 18 19 18 17 15 14 15 18 20 21 23 26 27
3 3 2 3 3 3 2 2 1 0 0 2 2 0 1 2 2 3 2 2 7 11 10 9 11 11 10 8 5 3 4 6 9 9 8 8 8 7 8 9 11 11 11 12 14 14 13 14 16 19 21 21 20 19 19 20 20 18 18 19 20 20 20 21 21 20 21 25 26 24 24 23 20 18 19 19 20 19 16 15 18 22 26 27 29 30
2 2 1 2 3 2 2 2 2 0 0 2 1 1 2 2 2 2 2 4 8 10 10 10 11 11 9 8 8 8 9 11 12 11 9 9 9 8 9 11 12 11 11 14 16 17 17 17 19 21 21 21 22 22 21 20 19 18 19 20 20 20 21 24 25 24 24 26 28 26 24 23 22 21 20 19 21 21 20 19 20 24 28 29 29 31
1 1 2 2 2 2 2 2 1 2 2 2 3 2 1 1 1 4 5 7 8 10 10 11 10 10 9 11 12 12 12 13 12 11 11 10 9 8 9 12 11 10 11 14 15 17 17 16 17 20 21 21 22 22 22 21 20 18 19 19 18 20 24 27 27 27 27 27 28 28 26 23 22 22 21 21 20 21 22 23 23 25 28 29 30 32
1 1 2 2 1 1 2 2 1 1 2 1 1 2 1 1 2 6 8 8 8 9 10 10 9 9 10 13 13 13 13 12 11 11 11 9 9 9 10 11 12 12 13 14 15 17 18 16 15 18 20 22 23 22 21 21 20 19 18 18 18 20 24 26 27 28 29 28 27 27 27 25 24 23 22 21 20 21 22 23 23 25 26 27 30 32
1 1 1 2 1 1 2 2 1 1 2 2 2 2 3 5 5 7 9 9 9 9 9 9 9 10 12 14 14 13 12 11 11 11 10 9 10 9 10 12 13 14 15 16 16 17 18 17 16 16 18 21 23 22 21 20 20 18 17 19 20 21 21 23 26 27 28 29 28 27 26 27 26 26 25 25 24 24 24 24 24 25 26 27 29 31
3 2 2 3 5 5 5 5 3 3 5 6 6 5 6 7 7 7 9 10 9 8 8 8 10 11 12 13 13 12 11 11 10 10 9 9 10 10 12 14 15 16 17 16 16 16 17 18 18 18 19 21 22 22 21 19 18 17 17 18 20 21 21 23 25 24 24 26 28 28 27 28 27 27 27 27 27 27 27 27 27 28 28 28 30 30
2 1 2 5 6 4 2 4 4 6 7 7 7 8 8 8 7 7 8 9 9 9 9 9 11 12 12 12 12 12 12 11 11 10 8 8 8 9 11 12 13 15 17 16 16 17 19 19 19 19 20 21 22 22 21 20 20 19 18 18 17 18 20 23 23 22 21 23 25 27 28 28 28 28 28 28 28 28 27 27 28 29 29 29 29 30
3 3 4 6 5 3 4 6 7 8 8 7 7 7 7 8 9 9 10 11 11 11 12 12 12 11 11 11 13 13 12 12 12 11 9 9 9 9 9 10 12 14 16 16 16 17 18 18 19 19 20 20 21 21 20 21 21 21 20 20 18 17 18 22 23 21 20 21 22 25 27 27 27 28 29 29 29 28 27 27 27 28 28 27 26 27
3 4 5 6 7 6 5 7 9 9 8 7 7 7 7 9 11 12 12 12 12 12 13 13 12 11 12 13 13 13 13 12 12 12 11 9 9 9 8 10 12 13 14 15 15 15 16 17 17 18 18 19 19 20 19 19 19 20 21 22 22 20 19 20 21 20 20 20 21 22 24 25 25 25 26 27 28 28 27 26 25 25 25 24 22 22
4 6 6 7 7 6 6 8 8 6 6 5 6 9 9 10 12 13 12 11 11 11 11 11 12 12 12 13 13 13 12 11 11 12 10 8 8 9 9 10 10 10 11 12 12 13 14 15 15 16 17 18 19 19 20 19 18 19 21 22 23 23 21 20 18 16 16 19 20 20 21 22 23 24 24 24 25 25 26 25 24 23 23 21 20 19
2 5 6 5 5 5 8 10 6 5 7 8 8 10 9 8 10 11 11 10 10 11 11 11 12 11 10 11 12 13 12 10 10 11 11 9 9 9 9 9 8 8 9 10 10 11 12 14 15 16 17 19 20 20 20 19 19 19 20 21 22 23 24 23 20 15 14 15 18 19 19 19 21 22 22 22 23 23 23 24 23 23 21 19 18 17
Wind_Direction
174 176 186 186 173 166 169 173 158 145 145 133 129 137 137 154 168 177 253 307 280 191 122 107 84 61 38 15 1 350 22 61 330 258 230 224 225 235 240 244 245 238 237 232 220 202 204 213 215 219 221 224 229 235 242 245 249 252 240 216 202 201 216 224 225 226 224 221 221 224 223 223 229 235 232 230 234 235 237 239 234 232 235 246 253 251
186 194 188 170 156 155 160 155 127 117 122 119 125 130 134 177 171 133 96 307 265 189 90 95 90 68 41 28 15 8 37 40 2 291 200 207 211 218 224 230 241 248 245 235 231 196 189 212 212 217 232 243 265 297 319 352 0 359 13 23 326 226 223 225 226 226 224 224 231 248 247 239 241 245 239 235 241 244 245 244 238 236 237 246 254 248
191 198 181 156 138 110 103 133 127 119 123 116 128 144 154 174 192 132 69 315 314 75 130 110 94 73 43 34 31 29 37 40 27 21 28 220 213 220 226 226 234 247 248 248 254 241 205 218 233 263 330 11 30 33 38 39 32 24 13 334 267 244 232 227 230 235 251 257 258 263 262 260 256 255 250 242 247 252 250 250 245 242 243 249 252 234
187 190 165 144 132 110 102 141 131 116 118 123 148 175 167 158 203 175 142 312 13 36 136 120 98 75 57 52 49 41 42 52 53 54 45 41 26 301 266 242 242 252 255 255 256 256 254 358 17 44 58 63 67 64 56 42 17 351 309 272 250 237 239 242 246 254 264 260 258 254 250 261 263 263 267 255 253 258 257 260 257 250 252 259 257 227
163 151 139 130 139 132 120 141 143 140 155 165 191 192 177 176 221 182 121 223 81 54 130 127 109 76 39 29 44 40 47 55 54 60 54 47 41 24 16 0 333 308 296 282 271 277 19 51 65 80 81 75 75 77 76 57 330 312 293 259 236 233 248 264 265 259 256 249 253 257 254 268 272 264 274 268 264 266 264 267 265 258 262 270 268 240
150 132 137 136 146 138 128 149 173 169 162 189 217 208 199 186 202 179 106 174 141 123 169 145 131 110 30 24 40 30 45 55 54 61 57 53 49 39 33 18 6 1 352 343 334 358 56 76 86 91 89 82 73 65 56 83 33 331 313 276 245 241 254 266 264 258 256 251 255 268 267 271 266 250 259 267 271 272 271 271 268 265 268 269 263 246
130 140 152 147 142 136 137 158 186 177 167 195 203 193 197 178 183 188 155 173 171 136 121 310 204 140 111 36 30 20 53 60 58 65 60 55 51 43 39 28 22 19 13 15 16 39 71 83 87 84 84 86 70 45 345 339 39 23 332 296 277 275 266 263 263 264 262 253 251 259 260 260 250 238 247 262 268 269 273 274 268 264 264 259 247 240
132 145 153 143 140 142 151 164 181 178 172 186 178 174 179 180 195 198 173 185 228 108 102 281 227 137 137 76 24 12 81 67 54 59 56 53 49 43 42 37 37 37 34 36 40 58 75 79 79 75 68 57 44 39 6 340 17 42 44 32 359 314 283 284 291 280 266 253 244 241 237 233 230 229 235 240 242 250 262 270 267 261 257 250 239 244
139 166 166 150 149 163 174 171 166 172 184 211 164 168 175 181 194 197 181 168 124 228 175 176 219 144 137 55 15 18 86 67 51 52 53 52 51 45 42 41 43 46 47 51 54 63 69 71 73 68 61 55 46 47 46 36 40 48 50 41 31 19 11 30 19 349 307 255 238 235 231 228 233 235 235 237 240 242 250 260 264 260 255 248 240 243
166 190 173 157 160 177 181 165 163 174 191 159 134 129 116 95 91 132 190 157 133 230 188 161 251 165 132 346 10 52 67 61 51 56 58 58 59 55 50 47 48 51 52 56 60 61 59 59 59 56 56 58 54 51 49 49 51 55 56 47 42 41 38 38 33 18 352 265 236 239 240 236 238 238 232 235 243 242 242 252 257 255 253 250 237 225
54 156 167 173 172 167 156 126 161 177 154 130 137 123 104 90 70 82 65 125 167 209 180 122 292 232 144 187 340 28 44 56 65 66 64 64 64 61 56 51 50 53 53 54 57 57 56 55 49 46 48 49 53 53 47 45 46 52 56 52 52 47 32 17 0 336 311 288 251 243 253 254 251 242 220 214 230 233 231 237 246 250 251 253 241 223
62 122 163 204 162 127 121 105 95 154 137 142 151 140 132 121 117 140 109 183 196 188 124 1 293 236 158 154 168 151 73 67 72 69 71 73 68 62 59 56 52 52 52 51 51 47 48 49 45 41 39 37 42 43 40 38 37 39 42 42 48 45 30 13 348 322 304 289 269 255 260 264 262 249 227 218 224 224 225 230 236 242 244 246 237 228
155 164 197 266 174 143 132 125 104 132 167 185 171 163 168 161 163 178 176 196 205 161 87 316 275 101 66 78 138 138 98 73 65 62 70 75 70 64 59 55 53 51 50 49 45 39 38 38 37 36 34 31 31 31 30 27 25 26 26 25 27 23 11 357 337 314 297 285 270 260 260 265 265 254 243 238 233 226 227 231 229 230 229 231 224 216
186 231 254 173 197 176 151 149 152 161 184 191 184 180 179 168 165 173 169 183 202 138 112 293 266 123 104 132 142 123 102 81 77 71 72 74 70 65 60 54 53 50 48 47 43 39 36 30 28 30 31 30 27 24 24 22 19 19 16 15 14 7 358 348 333 315 302 295 283 267 263 266 263 254 250 250 247 237 235 234 230 228 224 224 224 214
182 215 202 174 178 170 163 168 159 156 176 186 189 190 181 178 172 166 161 168 165 130 111 357 205 137 135 147 136 123 122 107 95 83 75 71 64 61 56 50 49 47 44 44 42 40 38 31 26 26 30 32 29 24 21 18 16 13 12 10 8 3 360 353 337 317 307 307 300 284 271 270 267 264 266 265 259 247 242 241 236 234 233 229 229 223
174 220 204 159 127 166 168 168 141 144 166 185 169 185 192 182 134 109 89 101 119 118 88 33 62 94 101 135 152 171 160 131 109 88 78 70 61 58 52 45 43 41 36 32 32 32 29 29 26 23 24 24 23 23 21 18 16 13 8 5 4 2 359 356 347 332 320 313 307 300 290 285 283 281 281 279 269 253 246 245 243 241 240 233 230 230
149 179 202 115 154 184 170 153 150 161 157 147 179 189 188 112 110 120 112 25 51 146 111 33 111 126 125 154 174 183 163 136 116 93 85 78 71 65 55 49 45 40 37 31 29 27 23 25 26 23 20 15 13 14 15 14 15 14 9 4 2 0 357 353 349 344 338 325 311 306 302 298 296 292 288 281 273 264 253 249 247 245 244 237 231 231
173 152 166 178 182 202 147 124 118 284 143 143 180 173 134 77 83 114 131 105 146 156 114 45 146 163 167 160 171 180 170 143 124 107 96 82 76 70 59 57 51 43 43 36 30 27 26 28 26 23 20 14 12 11 10 11 11 12 10 7 3 359 355 350 345 343 343 335 321 310 306 305 302 296 289 280 272 268 261 252 248 246 245 240 232 230
190 145 134 231 177 122 103 133 114 43 330 131 161 154 141 169 168 153 148 153 155 135 113 107 139 219 208 176 172 180 174 149 128 109 94 78 73 71 60 56 50 44 41 34 29 25 26 27 24 22 19 14 13 11 11 14 14 13 12 10 9 5 359 352 346 342 336 331 326 316 309 307 300 291 282 274 268 265 260 255 251 248 244 240 237 239
205 158 147 241 45 117 153 182 164 159 121 47 133 151 190 196 166 161 126 143 154 137 135 135 137 243 223 180 181 182 169 147 127 106 93 80 73 69 58 52 47 43 40 31 27 25 24 25 23 23 20 17 16 13 11 12 11 11 10 7 6 4 1 358 354 349 338 326 318 313 311 301 284 279 275 268 263 262 258 254 251 247 244 241 240 241
35 196 141 122 202 173 166 197 196 168 149 144 159 161 145 92 127 137 93 48 131 142 145 141 176 238 223 133 183 180 160 142 130 117 109 96 81 71 58 54 48 44 42 30 21 22 24 24 25 25 23 20 18 14 11 9 7 8 7 3 1 359 357 355 353 351 344 331 314 302 300 292 281 280 279 268 260 259 257 259 256 248 247 247 242 237
146 168 137 127 147 169 144 29 242 200 158 155 169 172 153 127 137 151 148 89 66 117 145 151 186 217 84 66 194 174 147 136 133 123 116 106 92 79 62 56 52 45 40 28 17 17 22 23 22 19 16 12 10 10 8 5 5 7 7 4 360 355 352 350 345 341 339 332 318 302 291 289 287 286 282 271 262 258 257 260 258 247 247 248 241 234
128 96 113 106 110 139 11 11 262 194 111 105 128 167 150 137 155 168 174 165 109 88 122 143 182 164 97 86 163 142 129 128 126 117 114 113 99 87 74 62 56 50 40 27 18 17 20 21 15 9 6 4 3 4 3 2 2 2 3 2 357 352 352 351 345 339 333 326 317 307 295 290 291 288 283 277 273 268 258 254 253 248 243 239 236 232
141 84 110 104 80 69 64 79 90 88 107 98 66 67 134 140 139 145 155 152 140 138 139 149 178 143 106 100 103 113 119 119 112 109 114 118 104 89 82 70 59 51 39 28 24 23 21 18 11 7 5 3 1 359 357 357 357 357 358 358 355 352 354 353 348 342 336 325 317 312 303 297 295 291 285 280 278 271 257 254 256 251 241 231 231 232
178 225 131 137 120 103 111 130 128 92 92 100 74 53 68 101 108 109 103 118 146 171 164 166 180 154 114 116 108 108 113 110 105 109 119 122 110 95 84 73 63 52 40 31 25 24 22 17 11 8 4 1 358 356 354 351 349 350 349 352 355 353 352 353 350 346 339 330 324 320 312 304 300 295 287 279 275 269 261 261 260 253 243 231 227 230
121 63 126 163 147 140 143 147 150 130 105 77 59 40 34 82 118 125 122 147 172 173 172 177 170 137 130 129 123 117 113 108 106 111 117 115 105 94 81 71 62 51 45 36 24 21 23 17 12 8 3 359 355 354 352 347 344 342 340 345 351 348 345 348 348 345 340 335 331 327 323 314 306 299 292 283 277 273 268 266 262 257 249 233 223 224
104 61 39 75 100 117 115 70 354 45 126 111 58 28 19 2 0 101 129 168 161 147 175 200 143 150 168 160 141 131 122 116 118 119 115 106 97 89 81 74 66 56 50 41 28 27 26 18 13 9 1 356 354 352 348 343 341 341 340 344 350 347 344 345 345 343 341 337 332 330 328 322 314 305 295 288 284 280 277 271 265 260 252 236 223 218
107 80 54 66 64 51 63 70 43 68 92 94 69 35 17 349 328 135 135 136 134 143 186 195 155 163 176 169 150 139 130 122 119 115 110 105 96 91 85 78 71 60 49 40 33 31 27 17 11 6 359 354 351 348 345 342 342 344 344 347 351 351 348 346 347 350 349 344 338 332 328 325 320 313 302 294 289 283 279 276 268 261 251 238 225 214
101 89 106 92 75 62 66 81 86 88 87 77 67 52 33 13 12 119 103 43 116 160 203 169 161 160 158 153 142 130 127 119 109 106 108 103 92 88 85 78 68 56 45 40 34 30 24 15 10 4 358 352 348 345 345 344 346 347 349 352 353 353 353 352 352 355 355 352 346 337 332 327 323 318 309 300 292 283 278 278 271 259 245 234 224 214
91 92 137 116 82 58 51 73 98 103 98 78 61 52 56 67 75 93 98 72 57 42 98 142 139 115 105 125 116 108 111 108 105 104 100 94 89 87 85 76 66 57 48 38 30 23 16 11 9 3 357 351 346 345 346 347 350 351 352 354 354 353 355 356 355 356 355 355 351 344 338 334 329 325 318 307 298 289 279 274 268 255 239 227 220 215
85 128 159 132 83 52 41 69 93 105 103 84 62 50 60 79 78 77 88 80 67 81 113 127 124 103 78 105 105 106 108 105 106 100 88 88 92 93 86 75 68 61 50 40 32 22 12 9 7 0 356 351 347 349 350 349 352 355 356 357 355 354 355 358 0 0 357 354 356 355 351 345 338 332 325 314 304 296 286 276 267 255 237 221 218 218
66 127 159 134 99 76 41 80 96 103 103 87 61 41 41 63 79 68 62 49 104 127 127 127 134 142 136 119 110 107 107 106 103 94 88 89 88 88 87 79 70 59 50 42 35 24 12 8 3 355 353 350 351 356 354 352 357 1 2 0 358 358 359 359 5 9 7 360 0 3 1 356 350 341 336 328 314 303 294 284 270 250 234 224 219 215
96 134 153 139 108 127 223 120 105 139 127 97 49 19 27 68 101 89 60 36 53 127 133 134 143 139 136 130 118 107 105 103 93 87 94 97 90 87 85 80 69 56 48 40 32 24 15 8 0 354 352 354 358 359 356 357 2 4 4 4 4 5 4 3 6 12 12 6 4 7 6 3 359 353 348 340 325 314 303 287 266 242 230 221 213 207
103 118 127 71 106 148 212 286 179 182 163 112 357 303 286 109 107 102 77 44 39 73 98 99 118 128 135 135 125 116 110 102 91 85 84 93 101 94 82 76 66 56 48 36 30 25 12 4 3 359 357 0 5 4 3 5 6 4 8 13 14 14 13 11 9 9 9 5 4 9 10 7 5 3 1 355 339 328 319 293 255 226 214 204 199 197
116 98 94 61 93 135 183 240 170 169 165 4 2 17 117 117 107 99 84 63 66 95 109 113 119 124 122 116 116 114 111 105 97 87 79 82 95 93 83 77 67 58 51 35 28 22 10 6 8 6 2 9 15 13 11 11 7 6 13 18 20 19 17 15 12 10 9 6 4 10 13 10 8 10 12 9 360 353 358 10 163 183 182 179 181 182
121 111 99 67 64 124 146 162 159 157 333 352 74 92 107 121 122 106 79 63 79 117 125 121 116 115 113 110 113 115 113 106 92 80 77 79 81 81 79 77 70 62 54 42 31 18 9 9 10 7 11 24 29 24 16 12 8 8 16 20 20 19 18 19 18 15 14 10 7 11 15 12 12 16 19 19 17 18 31 54 77 101 129 147 155 160
111 122 113 82 23 119 118 89 69 225 247 184 142 147 139 132 151 134 83 85 112 137 135 129 123 123 123 123 126 128 127 117 93 70 67 72 73 75 74 73 73 69 58 49 43 31 24 23 22 26 34 39 39 31 20 16 14 13 19 20 19 20 21 22 20 15 13 10 6 12 18 17 17 21 24 26 26 27 36 59 78 88 108 128 131 128
65 90 135 119 58 109 118 106 116 180 224 187 160 153 104 112 170 211 114 125 153 154 147 140 134 135 136 136 139 147 157 147 99 65 62 71 72 75 74 67 65 65 56 49 49 45 42 41 39 43 48 46 41 35 29 28 25 20 21 20 19 23 24 21 18 15 15 16 12 13 20 23 24 27 30 31 30 29 36 59 80 90 101 112 115 113
58 49 83 103 112 155 143 135 159 181 250 157 151 140 96 116 197 230 223 162 157 159 155 145 142 144 144 144 148 161 186 178 126 98 88 87 79 74 72 62 55 56 54 54 54 47 43 45 47 51 52 47 38 35 39 42 38 29 24 21 22 26 25 19 13 12 18 28 30 25 24 27 28 33 38 38 34 31 38 59 81 96 99 100 104 107
46 31 57 98 118 141 128 109 147 195 12 111 142 143 160 271 235 216 215 158 149 158 157 148 145 144 144 146 149 149 178 140 135 133 123 109 95 78 72 65 56 52 50 52 56 51 43 44 46 49 49 43 36 37 43 47 45 36 28 25 26 26 22 17 14 13 22 37 42 39 35 33 31 36 45 49 47 43 44 59 78 92 94 91 95 100
37 19 45 105 111 115 117 107 103 45 79 141 148 176 284 242 205 196 184 119 141 151 148 141 140 138 136 137 126 89 70 92 117 127 125 114 99 82 75 72 67 62 56 54 57 57 54 52 50 50 48 46 44 44 43 45 45 39 35 33 29 23 20 22 25 25 31 41 46 47 44 41 37 38 48 58 63 59 52 54 69 83 87 86 87 90
85 69 71 105 103 97 95 96 108 150 63 108 115 350 304 232 175 137 95 114 135 138 133 132 133 129 120 106 102 108 108 108 116 121 115 106 96 84 76 72 69 64 60 59 60 61 60 58 55 53 50 49 49 48 45 45 44 41 40 37 29 25 30 35 36 36 40 46 49 49 49 47 44 43 44 55 69 70 63 60 66 75 83 87 86 84
70 97 106 116 109 95 93 104 148 163 114 108 137 148 271 290 114 111 111 118 123 125 126 128 125 121 115 108 110 116 116 114 116 113 105 98 90 81 75 72 67 59 56 57 58 61 62 58 54 53 51 48 48 47 46 45 42 38 38 36 31 33 40 42 42 41 43 48 51 51 51 50 49 49 46 49 62 70 70 69 70 72 78 83 82 81
9 1 134 158 200 189 135 133 144 107 100 107 140 141 104 28 110 133 133 125 124 128 129 126 119 117 119 119 119 118 116 115 113 108 104 97 87 78 72 70 67 62 60 60 61 64 64 60 54 54 52 49 46 45 45 45 43 38 35 34 34 38 42 43 45 45 44 47 50 53 54 54 53 55 53 51 55 61 63 66 69 70 73 75 77 78
35 21 105 123 120 80 77 93 129 165 115 85 65 81 91 87 102 124 128 126 129 134 133 127 122 120 122 123 121 118 116 115 111 108 104 96 88 81 73 70 68 66 65 65 65 65 64 61 58 54 50 46 45 44 44 45 45 39 36 38 40 40 40 42 45 45 44 46 49 51 55 58 58 57 57 56 57 58 59 60 63 66 69 71 74 76
90 78 50 100 126 115 63 58 93 120 103 85 77 83 90 90 99 111 116 119 124 124 122 123 124 126 126 123 120 119 119 115 110 105 100 93 88 82 76 73 69 67 67 64 62 62 62 61 58 53 47 43 43 44 45 46 44 38 35 40 44 43 42 44 45 43 42 46 49 50 53 57 60 60 61 60 59 61 63 65 67 67 68 69 71 73
132 122 78 113 140 147 85 69 89 101 103 100 93 89 86 85 91 102 110 116 115 108 106 110 116 120 121 119 119 120 120 117 112 108 103 98 92 83 77 74 69 67 66 64 63 64 62 58 54 49 44 40 41 44 46 46 44 39 32 35 41 45 48 49 47 42 39 42 48 51 52 54 56 60 62 62 62 63 65 67 70 70 68 67 69 71
162 158 126 116 118 111 109 113 98 82 83 90 96 100 98 92 93 97 104 108 106 101 102 105 108 112 114 116 120 121 119 119 118 115 111 104 97 89 81 78 75 72 70 69 70 69 64 59 55 49 42 40 42 45 47 46 46 42 37 35 39 44 49 51 51 47 42 42 46 51 53 54 55 57 60 62 63 63 62 61 64 66 65 64 67 70
152 146 134 121 112 100 108 127 118 92 76 75 88 104 112 108 105 103 104 104 102 102 102 99 98 104 111 116 121 122 120 121 119 117 115 110 103 97 87 82 80 77 74 73 72 70 66 61 57 48 42 43 44 46 47 47 46 44 41 40 41 43 47 51 52 50 48 47 47 48 52 56 57 58 60 62 63 63 61 59 59 63 65 64 65 70
154 146 136 131 134 147 159 155 142 114 103 109 109 110 114 115 111 107 102 100 100 102 104 101 98 100 104 111 119 121 120 119 119 118 116 109 101 96 91 88 84 78 76 75 72 69 65 59 52 46 43 46 48 48 48 49 48 46 43 41 41 43 45 47 48 47 48 50 49 48 50 54 58 60 62 64 65 65 64 61 59 60 63 63 62 63
189 171 163 142 133 151 156 152 137 104 114 128 122 114 113 112 108 104 102 102 104 107 110 110 110 108 103 104 112 118 119 120 120 118 113 106 102 98 91 88 85 77 76 78 75 70 64 57 51 47 46 50 51 51 51 51 50 48 45 43 43 44 44 45 44 43 45 51 54 54 52 52 56 60 63 65 67 68 68 66 63 61 61 63 64 65
Height
771 777 779 775 775 776 777 776 776 778 779 782 786 786 788 787 785 786 784 782 782 782 786 789 790 795 797 796 795 791 789 789 790 789 788 788 789 790 790 790 790 789 787 787 788 789 790 791 792 792 794 795 796 798 799 801 804 806 807 808 809 810 811 812 813 815 815 816 816 817 816 816 817 817 818 819 819 820 820 821 823 825 827 830 832 832
772 777 775 771 772 774 776 778 777 781 782 782 784 786 790 788 783 783 784 784 781 782 792 794 794 800 802 800 800 795 793 796 796 792 790 788 787 788 789 790 790 788 788 788 788 789 790 791 792 794 796 798 801 804 807 810 812 814 814 814 814 813 813 813 814 814 815 816 816 816 816 816 817 817 817 819 820 820 821 822 823 825 826 828 829 830
776 776 772 772 774 776 781 782 777 780 782 782 785 786 787 787 785 785 787 786 782 783 793 794 795 803 803 802 802 801 801 801 799 795 792 790 787 787 788 789 790 790 789 789 788 789 791 793 796 799 801 803 806 810 812 813 814 815 814 812 811 812 813 813 814 815 815 816 816 816 816 815 816 817 817 819 820 821 821 822 823 824 825 825 826 828
778 773 771 775 776 776 783 785 779 781 784 784 786 786 786 789 787 785 788 790 787 788 791 790 794 801 801 802 803 802 802 800 798 796 794 792 791 789 788 788 789 790 790 789 789 790 792 797 800 802 805 806 806 808 809 810 810 809 808 807 809 812 814 814 814 815 816 816 816 815 815 814 815 816 818 819 820 820 821 821 822 823 823 823 825 827
771 767 770 777 775 773 781 786 781 781 786 788 786 783 784 787 783 781 787 790 789 792 789 786 793 800 801 804 805 800 799 799 797 796 795 794 794 792 791 791 791 791 790 790 790 791 795 800 803 803 804 804 803 803 805 805 805 807 807 808 810 811 813 813 813 814 815 815 815 815 814 814 815 815 817 819 819 820 821 821 822 822 822 822 824 825
766 768 770 774 775 775 779 784 781 778 784 790 787 782 780 780 780 783 787 786 788 793 792 788 796 805 803 804 808 803 801 802 798 798 799 797 796 795 796 796 795 794 793 793 794 795 798 802 804 803 801 801 801 803 804 801 801 805 808 808 809 810 811 812 812 812 813 814 814 814 814 814 814 815 815 817 819 820 820 821 822 822 821 821 822 823
766 770 769 771 776 776 776 780 780 777 782 788 782 778 778 778 779 784 785 785 788 794 796 794 795 804 805 803 808 806 804 804 801 800 801 799 799 798 799 799 798 798 796 796 796 797 801 803 803 802 802 802 803 803 804 802 800 802 806 809 810 811 811 811 812 812 813 813 813 813 812 812 812 813 813 815 818 819 819 820 821 820 819 820 821 822
766 770 772 772 774 777 777 778 779 777 780 783 776 775 779 779 780 782 783 785 789 791 796 795 789 798 805 803 807 807 805 807 805 805 804 802 803 802 801 802 801 801 800 799 799 800 803 803 803 803 804 805 804 803 804 805 802 803 806 809 811 812 812 811 812 812 812 812 811 811 810 809 808 808 809 809 810 812 814 816 818 819 818 818 820 821
763 767 770 770 773 777 774 771 774 776 777 777 776 777 778 777 778 779 781 786 793 792 792 792 788 796 807 804 805 805 804 809 811 809 808 805 805 805 805 805 804 804 803 803 804 804 805 805 805 805 806 806 806 805 806 806 805 806 808 810 812 813 812 811 811 811 811 810 809 808 807 806 806 806 806 806 805 807 810 812 815 816 817 817 818 819
761 760 760 763 768 771 768 767 770 772 773 775 779 781 779 781 783 783 783 785 793 795 790 793 792 795 807 807 805 807 806 811 813 810 809 808 807 807 807 807 807 807 806 806 807 807 808 808 807 807 808 808 808 807 808 808 808 809 810 811 812 812 812 811 810 810 809 809 807 807 806 806 806 807 808 808 807 808 809 810 812 814 815 816 817 819
759 757 757 758 760 760 762 768 771 770 771 775 778 779 780 785 786 787 788 785 793 797 793 800 799 792 801 809 810 812 811 810 811 810 810 809 809 809 809 809 809 809 810 809 809 809 810 809 809 808 809 810 810 811 810 810 811 811 811 811 811 811 810 809 809 808 808 807 806 806 806 805 805 806 808 809 808 808 808 809 810 812 813 815 817 819
760 760 759 756 754 756 760 769 774 772 773 774 773 775 782 788 787 788 791 790 798 801 797 806 805 790 796 809 812 813 810 809 810 811 811 811 811 812 812 812 812 812 813 812 812 812 811 810 810 810 810 811 812 812 812 812 812 812 811 811 810 810 809 808 807 806 805 805 804 804 804 803 803 804 806 806 806 807 807 808 809 810 812 813 815 817
761 758 758 755 754 754 758 769 777 776 774 774 773 775 783 792 796 797 796 796 798 797 799 807 802 795 804 811 811 811 810 811 811 810 811 812 813 815 815 815 815 815 815 815 815 814 813 813 813 813 812 812 812 812 813 813 812 811 811 811 810 809 809 808 807 805 804 803 802 802 801 801 801 802 804 804 804 806 807 807 807 808 810 811 813 815
763 759 756 757 756 750 751 764 775 777 775 774 773 772 779 790 802 808 808 805 799 795 801 804 799 806 817 814 810 811 811 811 812 812 813 814 816 817 817 817 817 817 818 818 819 818 817 816 816 816 816 815 815 814 814 813 812 812 811 810 810 810 809 808 807 805 804 803 802 801 800 800 801 801 802 803 803 805 806 805 805 806 808 809 810 812
766 766 756 753 754 749 749 754 760 767 770 771 769 767 773 780 788 799 800 798 796 795 800 802 802 811 818 814 811 810 810 810 812 814 814 815 817 817 818 818 819 820 821 821 822 821 821 820 819 819 820 820 819 818 816 815 814 812 811 811 810 810 808 807 806 804 803 802 802 801 800 800 801 801 801 802 802 803 804 804 804 805 806 807 808 809
764 762 748 746 749 745 747 749 750 760 770 773 770 770 773 768 773 794 802 797 794 793 801 811 815 815 814 815 814 811 811 813 813 815 816 818 819 819 820 822 822 823 823 823 823 823 823 822 822 821 821 822 821 820 819 818 816 815 813 812 810 809 808 806 805 803 802 802 801 800 800 800 801 801 801 801 802 802 802 803 803 803 804 805 805 806
762 758 748 749 750 743 743 746 748 755 764 773 774 772 772 764 767 790 806 807 798 792 808 824 822 817 816 816 814 812 813 814 815 817 819 821 822 824 826 826 826 826 827 827 826 826 825 825 825 824 823 823 822 821 820 819 817 816 814 813 811 810 808 807 805 803 802 801 800 799 799 800 800 800 800 800 801 801 801 801 801 802 802 802 802 803
754 754 751 748 747 745 743 743 748 749 752 766 770 765 766 768 770 776 792 805 798 796 816 826 819 815 815 814 812 811 812 815 817 819 821 823 824 827 830 829 829 830 830 830 829 829 828 827 827 827 827 826 824 823 821 819 818 816 814 813 812 810 808 807 805 804 802 801 800 799 798 799 799 799 799 799 799 799 799 800 799 800 800 801 801 801
748 751 753 747 745 748 745 745 754 755 750 754 755 754 760 770 774 777 787 796 797 809 825 825 821 817 809 809 811 809 810 814 817 820 822 826 828 829 831 830 831 832 831 832 831 830 830 830 830 829 829 827 826 824 822 820 818 816 814 813 811 810 809 807 806 803 802 801 800 798 797 797 796 795 795 795 795 797 797 798 798 798 799 799 799 799
748 751 755 750 747 749 746 747 756 758 755 753 752 754 757 762 766 772 779 780 787 813 825 822 827 817 800 802 805 804 808 813 817 822 825 828 830 831 832 832 833 833 834 834 833 833 832 832 832 831 829 828 826 824 822 820 818 816 814 812 811 810 808 807 805 803 801 800 799 798 796 795 793 791 790 790 791 793 794 796 796 797 797 797 797 797
746 749 753 752 749 749 748 749 749 750 753 756 758 760 762 766 766 768 779 781 783 803 816 821 826 812 796 799 799 798 806 812 816 821 826 830 831 832 833 834 834 835 835 836 835 835 834 833 833 831 830 828 826 825 823 821 819 817 815 813 811 810 808 806 804 802 801 799 797 797 795 793 790 789 789 788 789 790 791 793 795 795 795 795 795 796
743 745 751 752 751 750 750 751 749 745 745 748 752 755 757 763 764 768 785 790 784 793 804 810 811 803 801 803 797 796 804 812 816 819 825 831 831 833 835 834 836 836 836 838 837 836 835 834 833 832 830 829 827 825 824 821 820 817 816 814 812 811 809 807 805 802 801 799 797 795 794 792 790 788 787 786 786 787 788 791 792 792 792 792 792 793
739 742 748 753 753 752 751 752 753 751 747 745 750 753 752 752 754 762 778 786 789 797 801 798 796 798 805 805 799 801 807 813 816 817 824 831 831 834 836 836 838 838 839 840 838 838 837 835 835 833 831 829 827 825 824 822 821 819 818 816 814 813 810 807 805 802 800 798 796 794 793 791 789 787 785 784 783 783 784 786 787 787 787 787 788 790
739 743 749 754 754 750 749 750 752 752 750 750 756 762 759 754 753 757 764 771 785 798 795 792 795 799 805 809 807 810 812 816 819 820 825 831 832 835 837 838 840 841 841 842 840 840 838 837 836 833 831 829 827 826 825 823 823 821 819 817 815 813 810 807 805 802 800 797 795 793 791 790 788 786 783 782 780 780 781 781 782 782 783 784 785 787
739 746 750 755 761 760 757 755 753 750 753 759 766 769 767 762 759 760 765 767 779 794 789 783 792 800 806 812 813 815 818 821 824 825 828 832 834 837 839 840 842 843 843 843 842 841 839 837 836 833 831 830 828 828 827 825 824 821 819 817 814 812 810 807 805 802 799 796 794 792 789 788 787 785 783 781 779 779 779 779 779 780 781 782 782 784
744 758 753 751 761 767 764 762 760 758 760 767 773 773 770 768 760 758 767 768 775 793 790 778 787 804 810 813 816 819 822 825 829 830 831 833 836 838 840 842 843 844 845 844 843 841 839 838 837 835 833 832 831 830 828 826 824 821 819 816 814 812 809 807 805 802 799 796 793 790 788 786 785 783 782 780 778 778 777 778 778 778 779 779 780 781
753 772 767 756 756 761 763 768 771 768 764 767 773 775 775 777 768 759 764 766 772 790 791 779 787 804 810 812 815 820 824 827 831 834 834 835 837 839 842 843 845 846 846 845 844 841 840 839 838 837 835 834 833 832 830 827 825 822 819 816 814 812 810 807 805 802 799 796 792 789 787 785 784 782 780 779 777 776 776 777 777 777 777 778 778 780
750 769 775 772 773 774 777 781 779 774 773 776 779 780 780 782 772 758 760 767 770 778 783 784 791 798 803 809 814 819 824 828 832 835 835 837 839 840 843 845 846 847 846 846 844 842 841 840 839 839 837 836 835 833 831 829 826 823 820 817 815 813 810 807 805 802 799 796 793 789 786 784 782 781 779 778 777 777 776 776 776 777 777 777 778 779
748 766 776 777 781 784 783 783 780 778 783 787 786 786 785 784 775 768 777 786 778 769 773 783 791 795 801 810 815 819 824 829 834 836 837 838 839 842 845 846 847 847 846 846 844 843 843 842 841 840 839 838 836 834 832 829 826 824 821 818 816 813 810 807 804 802 799 796 793 790 786 784 781 780 779 778 777 776 776 775 776 776 776 776 777 778
749 768 776 773 779 786 784 783 782 781 785 789 791 791 789 787 785 784 793 798 790 781 781 785 794 805 812 817 822 826 829 831 835 838 839 840 841 844 847 847 848 848 846 845 844 844 844 843 842 842 841 840 838 835 833 830 827 824 821 819 816 813 810 807 804 801 798 795 793 790 787 784 781 779 778 777 776 775 775 775 775 775 775 776 777 777
746 765 775 771 776 787 788 786 783 781 785 791 795 795 791 789 791 792 795 797 794 793 794 794 802 816 824 826 828 831 832 834 838 840 841 842 843 846 848 848 848 848 846 846 845 845 845 844 843 843 842 841 839 836 833 830 827 825 822 819 816 813 810 808 805 802 798 795 793 789 787 784 781 778 777 775 774 773 773 773 773 774 776 776 777 776
745 765 775 769 770 785 791 790 788 784 782 787 795 800 797 795 796 798 800 800 794 794 799 800 803 816 826 829 831 833 835 838 840 841 843 845 846 848 848 849 849 848 848 848 847 847 846 845 845 844 843 841 839 837 834 831 828 825 822 820 817 813 811 808 806 802 799 796 793 789 787 784 781 778 776 774 773 772 772 772 772 773 773 773 774 775
749 758 766 762 768 785 789 788 791 784 773 779 796 806 805 801 800 802 804 804 799 796 798 799 803 816 827 828 830 836 839 840 842 844 846 847 848 849 849 849 849 849 849 849 849 848 848 846 846 845 843 841 839 837 835 832 829 826 823 821 818 814 811 809 807 803 799 796 793 790 787 784 782 779 777 774 772 771 771 771 771 771 771 771 773 774
751 753 760 762 768 782 787 787 787 778 772 787 804 808 806 802 800 803 809 812 809 806 806 808 814 823 827 827 830 837 841 844 846 847 848 848 849 850 850 849 850 850 850 850 850 849 848 847 846 845 843 841 839 837 835 833 830 827 824 822 819 815 813 811 808 804 800 798 794 791 788 785 783 780 778 775 773 771 770 770 770 770 770 771 773 774
752 754 763 768 770 778 783 780 776 777 788 804 809 805 803 803 803 807 814 817 816 815 817 820 823 826 827 830 835 839 843 846 847 848 850 850 849 850 849 850 850 850 851 851 850 849 849 848 846 845 843 841 839 837 835 833 830 828 825 822 819 816 814 812 809 805 803 800 796 793 789 786 784 781 779 777 775 772 771 771 771 771 771 772 773 774
750 754 764 773 775 777 777 775 777 791 806 811 808 806 804 804 803 804 809 817 819 817 819 823 828 831 833 836 839 841 844 846 848 850 851 850 850 850 850 850 851 851 851 851 851 850 850 849 847 846 844 841 839 837 835 833 831 828 826 823 820 817 815 813 810 807 804 802 799 796 792 789 787 784 782 780 778 776 774 773 773 773 773 774 775 775
750 753 759 772 781 780 781 788 795 802 807 807 807 808 806 805 804 800 803 815 821 819 820 827 831 833 836 838 840 842 844 844 848 853 853 851 851 850 850 851 851 851 852 852 852 851 850 849 848 846 843 841 839 837 836 834 831 829 827 824 821 819 817 814 812 809 807 805 803 799 795 792 790 787 785 783 781 780 779 777 776 776 777 778 776 776
751 752 752 765 784 786 783 794 802 797 794 797 804 809 807 807 810 806 803 811 819 820 821 826 831 834 837 839 840 843 842 837 843 853 853 852 852 851 852 853 852 852 852 852 851 851 850 849 848 846 843 841 839 838 837 835 833 830 828 826 824 821 819 816 815 812 810 808 805 803 799 796 793 791 788 787 786 785 784 782 781 780 781 781 778 777
756 759 756 763 782 786 777 783 793 792 791 797 804 810 810 809 811 807 797 800 813 820 820 824 830 833 836 837 839 842 836 830 840 854 854 852 853 853 853 853 852 852 852 852 852 852 851 850 848 846 843 841 840 840 838 836 834 832 830 828 826 824 821 820 818 816 813 811 808 806 802 799 796 794 792 791 790 790 789 787 785 784 785 784 780 780
758 762 763 766 778 784 780 784 793 794 798 805 807 808 809 809 809 803 792 795 811 819 819 824 829 830 834 836 837 839 834 831 842 854 853 852 855 854 853 854 853 853 853 853 853 852 851 851 849 847 845 843 843 842 840 837 835 834 832 831 829 827 825 824 822 819 816 813 810 808 806 802 800 798 796 795 794 794 793 792 790 788 788 787 784 783
775 776 777 776 779 783 782 787 795 798 803 809 809 808 810 809 803 796 794 803 814 818 819 825 828 830 834 835 836 841 842 841 845 852 853 853 855 854 854 854 853 854 855 855 854 853 852 852 850 848 847 846 845 843 841 840 837 836 835 833 831 830 829 827 825 822 819 816 813 810 809 806 804 802 801 799 798 797 796 796 795 793 791 789 788 788
780 783 783 783 787 791 791 791 794 798 805 811 810 810 810 804 797 798 806 813 816 818 821 826 828 831 834 837 839 844 846 847 849 852 853 854 854 854 854 854 854 856 856 855 855 854 853 852 851 850 849 848 847 845 844 842 840 838 837 836 834 834 832 830 827 824 821 818 815 813 811 810 808 807 805 803 801 800 799 799 798 796 794 793 794 794
782 781 784 793 801 801 798 793 788 791 805 814 811 809 808 804 802 808 815 817 817 819 823 826 830 833 836 840 843 845 846 849 851 852 854 854 855 855 855 855 856 857 857 856 856 855 854 853 852 851 850 850 848 847 845 844 842 841 839 838 838 836 834 832 830 827 824 821 818 816 815 813 812 811 809 808 805 803 802 802 801 800 799 799 798 798
791 789 790 800 805 795 787 790 795 801 813 816 811 809 811 811 811 814 815 817 820 822 824 828 833 836 837 840 844 846 849 851 852 853 855 856 856 856 856 857 858 858 858 858 857 857 856 854 853 853 852 851 850 848 847 845 844 844 842 841 840 839 836 835 832 830 827 824 822 820 818 817 815 814 813 812 809 807 806 805 804 804 803 803 802 802
796 796 792 799 808 804 796 801 811 816 817 815 813 815 815 815 815 815 815 819 822 823 826 830 834 837 838 840 844 847 850 852 854 855 856 856 857 858 858 859 860 859 860 859 858 858 857 856 855 854 853 853 851 850 849 848 847 846 845 844 842 840 839 837 835 833 831 828 826 824 822 820 819 817 816 815 813 811 810 809 808 807 807 807 807 807
802 802 797 801 810 812 809 812 816 815 815 816 816 817 817 817 818 817 818 821 824 825 828 830 834 838 840 842 845 848 851 853 855 856 857 858 859 860 860 861 861 861 861 860 860 860 859 857 857 856 855 854 853 852 851 850 849 848 847 846 844 843 841 839 837 836 834 832 830 828 826 824 822 821 820 818 817 816 815 814 813 812 812 812 812 812
802 800 800 803 806 805 809 816 817 815 817 820 819 819 820 820 820 821 821 824 826 828 830 832 835 839 841 843 846 849 852 854 856 857 859 860 860 861 862 862 863 862 862 862 861 861 860 859 858 858 857 856 855 854 853 852 850 850 849 848 846 845 844 842 840 839 837 835 833 831 829 828 826 825 823 822 821 821 820 819 819 818 817 817 817 817
799 798 801 805 807 808 812 818 819 818 819 820 819 821 823 823 824 825 825 826 828 830 832 835 837 840 843 845 848 850 853 855 856 857 859 861 862 863 864 864 864 864 863 863 863 862 862 861 860 860 859 858 857 856 855 853 852 852 851 850 848 847 845 844 842 842 841 839 837 835 833 832 831 829 827 826 825 825 824 824 824 822 822 822 822 822
797 799 801 805 811 815 816 819 819 819 822 824 823 823 824 824 826 828 828 829 831 833 835 838 840 842 845 847 849 851 853 856 857 858 860 861 863 864 864 865 865 865 864 865 864 864 863 863 862 862 860 859 859 858 856 856 855 854 853 852 850 849 847 846 845 845 844 842 840 838 837 835 834 833 831 830 829 828 828 829 828 827 827 827 828 828
799 800 803 806 810 812 813 815 814 814 820 826 826 825 826 826 827 829 831 833 835 836 838 841 843 846 848 849 851 853 855 857 859 860 861 862 864 864 865 865 866 866 866 866 865 865 865 864 864 863 862 861 861 859 858 858 856 856 855 854 852 851 849 848 848 847 846 845 843 842 840 839 837 836 835 834 833 832 832 833 832 832 831 831 832 832
799 800 800 801 803 804 806 810 813 813 819 826 827 827 828 829 829 831 834 836 838 840 841 842 845 848 850 852 853 854 856 858 860 860 862 863 864 865 865 866 866 866 866 866 866 866 866 866 865 864 864 863 863 862 860 860 859 858 857 856 854 853 852 851 850 849 848 847 846 845 844 842 841 840 838 837 836 836 836 836 835 835 835 835 835 835